{"data":{"norad_id":39013,"intl_designator":"2012-066C","name":"YAOGAN-16 01C","alt_names":[],"object_type":"PAYLOAD","status":"ACTIVE","operator":null,"country":"PRC","launch_date":"2012-11-25","launch_site_code":"JSC","launch_vehicle":null,"mission":null,"orbit_class":"UNKNOWN","rcs_meters":2.6512,"size_class":null,"mass_kg":null,"dimensions":null,"purposes":[],"wikipedia_slug":null,"has_3d_model":false,"image_url":null,"decayed_at":null,"tle_current":{"epoch":"2026-05-25T03:28:21.885600Z","epoch_age_seconds":72587,"freshness":"FRESH","line1":"1 39013U 12066C   26145.14469775 -.00000078  00000+0  12862-4 0  9990","line2":"2 39013  63.3563 349.0317 0433951  26.2721 335.9625 13.45503541663038","mean_motion":13.45503541,"eccentricity":0.0433951,"inclination_deg":63.3563,"raan_deg":349.0317,"arg_perigee_deg":26.2721,"mean_anomaly_deg":335.9625,"bstar":1.2862e-5,"rev_number":66303,"period_min":107.02312971468,"perigee_km":764.81742374802,"apogee_km":1412.8785438907,"semimajor_km":7466.9849838194,"source":"CELESTRAK","updated_at":"2026-05-25T13:37:55.331830Z"}}}